Wind_Speed
58 60 62 64 66 68 69 71 73 74 73 74 77 79 82 85 89 93 96 100 104 106 107 107 104 98 94 91 88 87 87 88 90 92 95 99 103 108
60 62 64 66 68 70 72 73 74 75 76 77 80 84 88 93 97 102 105 106 106 103 99 92 85 78 72 67 64 63 63 63 65 68 71 75 79 84
62 64 66 68 70 72 73 74 75 77 79 80 85 89 95 99 103 105 104 100 93 85 78 70 64 59 54 52 50 49 49 51 52 54 56 59 63 67
64 66 68 70 71 72 74 75 78 81 84 86 89 95 98 101 101 98 91 82 73 65 59 54 51 48 46 45 44 43 44 44 46 48 50 52 54 56
65 67 69 71 72 73 75 78 81 85 90 93 95 97 98 97 91 81 71 63 56 51 48 46 45 43 42 42 42 42 41 41 42 44 45 47 48 50
67 69 70 71 73 75 78 82 87 91 95 97 98 96 92 83 74 62 53 48 45 44 43 42 41 42 42 42 42 41 39 38 38 40 41 43 44 45
68 69 71 73 75 79 84 88 93 96 98 98 95 88 77 65 55 48 42 39 39 41 39 39 40 40 41 41 41 40 39 37 36 35 36 38 39 41
68 70 72 75 79 84 89 93 96 97 96 92 84 72 59 50 43 39 37 35 34 37 37 37 39 39 39 39 38 37 35 33 32 32 33 33 34 35
69 72 75 79 84 89 92 95 95 92 87 78 67 55 47 41 37 35 34 33 34 36 36 35 36 36 36 35 32 30 29 29 29 29 30 30 31 31
72 75 80 85 90 93 93 92 87 80 71 61 53 45 40 38 36 34 33 32 32 36 37 34 34 33 32 31 29 27 27 27 27 28 28 29 29 30
75 80 85 90 92 93 90 84 75 64 55 48 43 40 38 36 36 35 34 33 31 33 35 33 32 30 29 29 27 26 26 27 27 27 28 28 28 29
79 85 90 92 92 88 81 70 59 50 44 40 38 37 37 37 37 37 36 35 33 31 31 30 28 26 24 26 26 25 26 27 28 28 28 28 28 29
84 89 91 90 84 76 66 55 47 40 37 36 35 36 36 37 37 37 38 37 35 32 30 26 24 23 21 19 23 25 26 26 26 26 27 28 28 30
88 90 87 80 71 61 52 44 39 35 34 35 35 36 36 36 36 37 37 37 35 31 27 24 21 19 17 17 19 21 24 25 24 25 26 27 28 30
88 84 76 66 56 48 42 37 34 34 34 34 35 36 36 36 35 34 34 34 32 29 24 21 19 17 16 16 18 19 19 21 23 25 26 28 29 29
80 71 61 52 45 39 35 33 33 33 33 34 35 35 35 35 34 32 30 29 27 27 24 20 17 16 15 16 18 19 20 20 21 24 26 27 29 30
68 57 48 41 36 33 32 32 32 33 34 34 34 34 33 33 31 29 27 26 23 21 20 19 17 15 14 15 17 19 20 21 22 23 24 27 29 31
53 43 37 33 31 30 30 31 32 32 32 33 32 32 31 30 28 27 26 23 21 18 16 15 14 13 14 16 17 18 19 19 20 22 24 26 28 29
39 33 30 28 28 28 28 30 31 32 32 31 31 30 30 29 27 25 24 22 19 16 13 12 11 10 11 13 17 17 17 17 19 21 23 25 27 27
30 27 26 25 26 27 28 30 31 32 32 31 31 30 29 28 26 24 21 18 16 14 12 10 8 8 8 10 13 15 16 16 17 19 21 23 25 25
24 23 22 23 25 27 29 30 31 31 31 31 30 29 28 26 24 21 19 16 14 12 10 7 6 6 7 9 12 13 14 15 16 18 20 22 22 22
19 19 20 22 24 27 29 30 31 31 31 30 30 28 26 24 22 19 17 14 12 10 8 5 4 4 6 8 11 12 13 14 16 18 19 20 20 20
16 17 19 21 24 27 29 30 30 31 30 29 29 27 25 23 20 18 15 12 10 8 6 3 2 3 5 7 9 11 13 13 15 16 18 19 20 20
Wind_Direction
298 298 299 299 299 299 300 300 300 300 300 300 300 299 299 299 298 297 297 296 295 294 292 290 288 286 284 282 280 278 275 273 271 268 266 264 261 259
299 299 300 300 300 301 302 302 302 302 302 302 302 302 302 301 301 300 300 299 297 295 294 292 291 289 288 286 284 281 279 276 273 270 268 265 263 260
299 300 301 301 302 303 303 303 303 303 304 304 304 303 303 303 302 302 301 300 298 296 295 294 293 292 291 289 287 285 282 279 276 274 272 269 266 262
301 302 302 303 304 304 304 305 305 305 305 305 305 305 304 304 303 303 301 299 298 297 297 296 296 295 293 292 290 288 286 283 280 277 275 272 269 265
302 303 304 305 305 305 306 306 306 306 306 306 306 306 305 305 304 302 300 299 298 298 298 298 298 297 296 295 294 292 290 287 283 280 277 275 272 268
304 305 306 306 306 307 307 307 307 307 307 307 307 307 307 305 304 302 300 298 298 298 300 300 300 300 300 300 299 297 295 291 287 283 280 277 274 271
305 306 307 307 308 308 308 308 308 308 308 309 309 309 307 305 303 301 300 298 298 298 300 302 301 302 301 302 302 301 298 295 291 287 283 280 276 273
306 307 308 308 309 309 309 309 309 310 310 310 310 309 308 305 303 302 300 298 298 298 301 302 302 303 302 303 303 301 299 297 295 293 290 285 281 277
308 308 309 309 310 310 310 310 311 311 311 311 310 309 307 305 304 303 302 302 302 300 302 303 303 304 304 305 305 305 303 301 299 298 296 292 287 283
309 310 310 311 311 311 311 312 311 311 311 311 311 309 307 305 305 305 305 304 305 304 305 307 306 306 306 308 309 308 306 306 304 302 300 297 292 288
310 311 311 312 312 312 312 313 313 312 311 310 310 309 309 308 307 308 308 307 308 307 307 309 308 308 309 309 310 310 310 311 311 309 307 303 299 294
311 312 313 313 314 314 314 314 314 313 311 310 310 310 310 310 310 310 309 309 309 309 308 308 307 307 307 308 310 312 314 316 315 315 313 309 305 301
313 313 314 314 314 314 315 315 315 313 311 310 310 310 310 310 309 309 309 310 309 310 309 307 306 307 308 305 308 313 317 318 319 320 320 318 314 309
314 315 315 314 314 314 315 315 315 314 313 312 312 311 311 310 310 310 310 310 309 309 308 307 308 308 309 309 311 314 318 321 324 327 328 326 322 317
315 315 315 315 315 315 316 316 316 315 315 314 313 313 312 312 311 311 310 310 309 308 308 308 310 311 313 316 321 324 326 328 329 332 333 332 329 326
316 315 315 315 315 316 317 318 318 318 317 317 316 315 314 314 313 312 311 310 308 308 308 310 310 313 317 323 329 334 336 337 337 336 337 338 338 336
317 316 316 316 318 320 321 322 323 323 323 322 321 320 318 317 316 315 315 313 309 305 304 307 310 313 319 326 334 338 339 339 341 342 343 344 346 346
317 317 317 319 321 323 325 326 327 327 327 327 326 325 323 321 319 318 318 316 312 308 304 303 306 312 322 331 337 340 339 340 343 345 347 350 353 355
318 319 320 322 324 327 328 329 329 329 329 328 328 327 325 324 321 319 318 317 314 310 307 306 306 311 321 329 335 340 343 345 349 350 352 356 359 2
320 322 324 326 329 330 331 331 331 330 330 329 329 328 327 326 323 321 319 317 314 312 310 308 308 312 322 333 339 344 348 353 356 357 359 1 4 8
323 326 329 331 333 334 334 334 334 334 333 332 331 330 329 329 326 323 321 318 315 314 312 309 311 319 333 343 349 353 356 359 2 3 4 5 7 13
329 333 336 338 339 339 339 339 338 338 337 336 334 333 331 330 328 326 324 321 318 317 314 308 312 329 344 352 358 3 6 7 9 9 10 12 15 20
337 340 343 343 343 343 343 343 342 342 341 340 339 338 334 332 330 328 326 322 321 320 316 306 310 344 360 5 9 12 13 16 16 18 19 20 22 27
Height
5658 5652 5645 5639 5632 5624 5617 5609 5601 5595 5590 5580 5568 5558 5547 5537 5527 5517 5507 5497 5485 5473 5461 5449 5439 5429 5421 5413 5406 5400 5395 5391 5389 5388 5387 5389 5392 5396
5645 5638 5631 5624 5616 5608 5600 5592 5582 5574 5568 5560 5547 5535 5523 5511 5498 5485 5474 5461 5448 5434 5422 5412 5404 5396 5389 5383 5377 5372 5366 5362 5359 5357 5355 5355 5357 5359
5631 5624 5616 5608 5600 5591 5582 5574 5564 5554 5547 5541 5527 5514 5499 5484 5471 5456 5441 5426 5414 5403 5393 5385 5379 5373 5368 5363 5358 5353 5348 5343 5339 5336 5333 5332 5331 5332
5617 5609 5601 5592 5583 5574 5564 5555 5545 5535 5525 5518 5508 5492 5476 5458 5443 5428 5412 5398 5388 5381 5373 5367 5362 5357 5352 5347 5342 5338 5333 5328 5323 5319 5316 5314 5311 5310
5602 5594 5585 5576 5566 5557 5547 5536 5526 5514 5502 5492 5482 5467 5450 5431 5417 5403 5390 5379 5371 5365 5359 5354 5349 5343 5338 5333 5328 5323 5319 5314 5309 5305 5300 5297 5294 5293
5587 5578 5569 5559 5549 5539 5529 5517 5505 5492 5479 5465 5454 5440 5424 5407 5393 5383 5376 5366 5359 5353 5348 5343 5337 5331 5325 5320 5315 5310 5305 5300 5295 5291 5286 5283 5279 5277
5572 5562 5553 5542 5532 5520 5509 5496 5482 5467 5453 5438 5425 5412 5398 5386 5376 5368 5362 5356 5349 5342 5338 5332 5326 5321 5314 5308 5302 5297 5291 5287 5282 5278 5273 5270 5266 5264
5557 5547 5537 5526 5515 5503 5489 5474 5457 5441 5426 5412 5400 5388 5378 5369 5363 5357 5351 5346 5341 5334 5328 5324 5316 5310 5304 5298 5292 5286 5281 5276 5271 5267 5262 5258 5255 5252
5541 5531 5521 5509 5496 5483 5469 5453 5435 5416 5401 5389 5380 5371 5364 5357 5352 5347 5341 5336 5330 5323 5318 5315 5307 5300 5294 5288 5283 5278 5272 5267 5262 5257 5253 5248 5244 5241
5526 5515 5503 5490 5475 5461 5448 5432 5415 5398 5385 5374 5366 5359 5352 5347 5342 5337 5332 5327 5322 5314 5307 5303 5298 5291 5285 5279 5274 5269 5264 5259 5254 5249 5244 5240 5235 5231
5511 5498 5484 5471 5456 5440 5426 5411 5396 5382 5370 5361 5355 5349 5343 5337 5332 5327 5322 5317 5313 5307 5299 5294 5288 5283 5277 5272 5267 5262 5257 5252 5247 5241 5236 5231 5226 5221
5495 5479 5464 5448 5432 5415 5402 5391 5380 5370 5361 5353 5346 5340 5335 5329 5323 5317 5312 5307 5303 5298 5292 5286 5280 5275 5271 5265 5260 5255 5250 5245 5239 5234 5228 5222 5216 5211
5475 5460 5444 5427 5412 5397 5385 5376 5367 5360 5353 5346 5340 5333 5327 5321 5315 5309 5303 5297 5292 5288 5283 5279 5274 5268 5264 5261 5255 5249 5244 5239 5233 5227 5220 5214 5207 5200
5455 5439 5424 5409 5395 5383 5374 5366 5358 5352 5345 5339 5332 5326 5319 5313 5307 5301 5294 5288 5283 5279 5275 5271 5267 5262 5258 5255 5251 5246 5239 5233 5227 5221 5214 5207 5199 5191
5436 5420 5405 5392 5382 5372 5364 5358 5351 5345 5338 5332 5325 5318 5312 5305 5299 5294 5287 5281 5275 5270 5267 5264 5260 5257 5253 5249 5245 5240 5235 5230 5223 5216 5209 5201 5193 5184
5418 5404 5391 5380 5371 5364 5357 5351 5344 5338 5331 5324 5317 5311 5304 5297 5291 5286 5280 5274 5269 5264 5260 5257 5254 5251 5248 5244 5240 5235 5230 5224 5219 5212 5205 5197 5187 5177
5402 5390 5380 5371 5364 5357 5351 5344 5338 5331 5324 5317 5310 5303 5296 5290 5283 5278 5273 5268 5263 5260 5256 5253 5250 5247 5244 5241 5237 5232 5226 5221 5215 5209 5202 5193 5184 5173
5389 5379 5371 5364 5358 5351 5345 5338 5332 5325 5318 5311 5304 5297 5290 5284 5278 5272 5267 5262 5258 5255 5252 5249 5247 5244 5242 5238 5235 5230 5225 5219 5214 5207 5200 5191 5182 5172
5379 5372 5365 5359 5353 5347 5340 5334 5327 5320 5313 5306 5299 5292 5285 5279 5273 5267 5262 5258 5254 5251 5248 5246 5244 5242 5240 5237 5233 5229 5224 5218 5212 5206 5199 5191 5182 5173
5372 5366 5360 5354 5348 5342 5336 5330 5323 5315 5308 5301 5294 5287 5281 5274 5268 5263 5258 5254 5251 5248 5246 5244 5242 5240 5238 5236 5233 5229 5223 5218 5212 5206 5199 5192 5184 5176
5367 5362 5356 5351 5345 5339 5332 5325 5318 5311 5304 5296 5289 5282 5276 5270 5264 5259 5255 5251 5248 5246 5244 5242 5241 5239 5237 5235 5232 5228 5224 5218 5213 5207 5200 5194 5187 5180
5363 5358 5353 5348 5342 5336 5329 5321 5314 5307 5299 5292 5285 5278 5272 5266 5261 5256 5252 5249 5246 5244 5242 5241 5240 5239 5237 5235 5232 5228 5224 5220 5215 5209 5203 5196 5190 5184
5360 5356 5351 5346 5340 5333 5326 5318 5311 5304 5296 5289 5281 5275 5268 5263 5258 5254 5250 5247 5245 5243 5242 5241 5240 5239 5238 5236 5233 5230 5226 5222 5217 5212 5207 5200 5194 5188